EW5676 Weather Reports


Display with metric or nautical units.
time (UTC)temp
F
wind
direction
speed
MPH
gust
MPH
rain 1hr
in
rain 24hr
in
rain mn
in
humidity
%
barometer
mb
20260905230047 73 328 1.0 3.0 0.00 0.00 0.00 73 1016.3
20260905225147 74 0 0.0 0.0 0.00 0.00 0.00 74 1016.2
20260905224248 73 0 0.0 0.0 0.00 0.00 0.00 77 1016.2
20260905223347 73 0 0.0 0.0 0.00 0.00 0.00 75 1016.2
20260905222447 73 0 0.0 0.0 0.00 0.00 0.00 72 1016.2
20260905221549 73 0 0.0 0.0 0.00 0.00 0.00 73 1016.2
20260905220647 74 10 1.0 3.0 0.00 0.00 0.00 73 1016.2
20260905215747 74 347 1.0 3.0 0.00 0.00 0.00 73 1016.3
20260905214847 74 8 1.0 3.0 0.00 0.00 0.00 72 1016.3
20260905213947 75 346 1.0 4.0 0.00 0.00 0.00 73 1016.2
20260905213047 75 309 2.0 4.0 0.00 0.00 0.00 70 1016.1
20260905212147 75 333 1.0 4.0 0.00 0.00 0.00 68 1016.0
20260905211247 75 309 0.0 3.0 0.00 0.00 0.00 69 1015.9
20260905210347 75 341 1.0 3.0 0.00 0.00 0.00 66 1015.9
20260905203648 74 0 0.0 0.0 0.00 0.00 0.00 75 1015.7
20260905202747 74 353 2.0 3.0 0.00 0.00 0.00 73 1015.8
20260905201848 74 343 2.0 4.0 0.00 0.00 0.00 70 1015.8
20260905200947 74 329 2.0 5.0 0.00 0.00 0.00 69 1015.7
20260905195147 76 305 3.0 6.0 0.00 0.00 0.00 67 1015.7
20260905194247 76 334 3.0 6.0 0.00 0.00 0.00 63 1015.7
20260905193347 76 313 4.0 7.0 0.00 0.00 0.00 64 1015.7
20260905192447 77 326 3.0 8.0 0.00 0.00 0.00 61 1015.8
20260905190647 77 331 3.0 7.0 0.00 0.00 0.00 63 1015.8
20260905185747 77 313 2.0 7.0 0.00 0.00 0.00 61 1015.9
20260905184847 77 326 4.0 8.0 0.00 0.00 0.00 64 1015.8
20260905183947 76 331 5.0 9.0 0.00 0.00 0.00 61 1015.9
20260905183047 76 317 3.0 6.0 0.00 0.00 0.00 64 1015.9
20260905182147 76 333 5.0 12.0 0.00 0.00 0.00 66 1016.0
20260905180348 75 291 4.0 10.0 0.00 0.00 0.00 65 1016.1
20260905175447 74 300 4.0 8.0 0.00 0.00 0.00 66 1016.2
20260905174548 75 340 4.0 9.0 0.00 0.00 0.00 65 1016.2
20260905171847 75 330 5.0 10.0 0.00 0.00 0.00 65 1016.2
20260905170047 74 293 5.0 10.0 0.00 0.00 0.00 68 1016.4
20260905165147 74 278 4.0 9.0 0.00 0.00 0.00 69 1016.4
20260905164246 74 290 5.0 8.0 0.00 0.00 0.00 70 1016.3
20260905163348 74 283 5.0 9.0 0.00 0.00 0.00 71 1016.4
20260905162447 74 291 5.0 11.0 0.00 0.00 0.00 71 1016.4
20260905161547 73 306 4.0 9.0 0.00 0.00 0.00 70 1016.2
20260905160647 73 285 4.0 8.0 0.00 0.00 0.00 73 1016.3
20260905154846 73 299 5.0 10.0 0.00 0.00 0.00 74 1016.4
20260905153947 73 344 5.0 9.0 0.00 0.00 0.00 73 1016.4
20260905153047 74 322 5.0 11.0 0.00 0.00 0.00 71 1016.5
20260905152147 73 320 5.0 12.0 0.00 0.00 0.00 71 1016.4
20260905150347 72 17 6.0 12.0 0.00 0.00 0.00 72 1016.3
20260905145447 72 332 8.0 15.0 0.00 0.00 0.00 72 1016.4
20260905144547 73 325 4.0 12.0 0.00 0.00 0.00 69 1016.4
20260905143647 73 333 5.0 10.0 0.00 0.00 0.00 71 1016.4
20260905141846 72 2 5.0 12.0 0.00 0.00 0.00 72 1016.3
20260905140946 72 9 4.0 10.0 0.00 0.00 0.00 75 1016.2
20260905140047 72 18 5.0 13.0 0.00 0.00 0.00 72 1016.3
20260905135147 72 339 5.0 11.0 0.00 0.00 0.00 74 1016.2
20260905133347 71 332 4.0 8.0 0.00 0.00 0.00 76 1016.4
20260905132446 71 20 5.0 10.0 0.00 0.00 0.00 76 1016.4
20260905131547 71 334 3.0 7.0 0.00 0.00 0.00 74 1016.5
20260905124847 70 333 5.0 9.0 0.00 0.00 0.00 78 1016.6
20260905123947 70 323 5.0 9.0 0.00 0.00 0.00 78 1016.7
20260905123047 70 318 5.0 10.0 0.00 0.00 0.00 78 1016.8
20260905122147 70 317 5.0 9.0 0.00 0.00 0.00 80 1016.9
20260905120347 69 313 5.0 9.0 0.00 0.00 0.00 80 1016.8
20260905115446 69 307 4.0 7.0 0.00 0.00 0.00 81 1016.6
20260905114546 69 312 4.0 9.0 0.00 0.00 0.00 81 1016.5
20260905113647 69 311 4.0 8.0 0.00 0.00 0.00 82 1016.4
20260905112747 68 310 2.0 6.0 0.00 0.00 0.00 83 1016.2
20260905111846 68 303 1.0 4.0 0.00 0.00 0.00 84 1016.1
20260905110947 68 299 1.0 3.0 0.00 0.00 0.00 84 1016.1
20260905110046 67 292 1.0 3.0 0.00 0.00 0.00 85 1016.0
20260905105147 67 290 1.0 3.0 0.00 0.00 0.00 86 1015.8
20260905104247 66 304 2.0 3.0 0.00 0.00 0.00 85 1015.7
20260905102447 66 305 2.0 4.0 0.00 0.00 0.00 85 1015.6
20260905101547 66 298 0.0 2.0 0.00 0.00 0.00 85 1015.6
20260905100647 66 292 0.0 2.0 0.00 0.00 0.00 84 1015.6
20260905095747 67 310 1.0 2.0 0.00 0.00 0.00 83 1015.6
20260905094846 67 318 2.0 4.0 0.00 0.00 0.00 82 1015.5
20260905093946 68 331 2.0 5.0 0.00 0.00 0.00 81 1015.4
20260905093046 68 322 3.0 5.0 0.00 0.00 0.00 80 1015.5
20260905092147 68 326 3.0 5.0 0.00 0.00 0.00 80 1015.5
20260905091247 69 319 3.0 5.0 0.00 0.00 0.00 79 1015.5
20260905090347 69 319 3.0 6.0 0.00 0.00 0.00 79 1015.5
20260905085446 69 307 3.0 8.0 0.00 0.00 0.00 78 1015.6
20260905084546 69 313 3.0 5.0 0.00 0.00 0.00 78 1015.5
20260905080946 69 323 3.0 6.0 0.00 0.00 0.00 77 1015.4
20260905080047 69 324 3.0 5.0 0.00 0.00 0.00 77 1015.4
20260905075147 69 336 3.0 8.0 0.00 0.00 0.00 77 1015.3
20260905074246 70 338 3.0 8.0 0.00 0.00 0.00 76 1015.3
20260905073346 70 328 4.0 6.0 0.00 0.00 0.00 75 1015.3
20260905072446 70 335 3.0 6.0 0.00 0.00 0.00 75 1015.3
20260905071546 70 334 4.0 8.0 0.00 0.00 0.00 75 1015.4
20260905070647 71 328 4.0 7.0 0.00 0.00 0.00 74 1015.5
20260905065746 71 322 4.0 7.0 0.00 0.00 0.00 74 1015.6
20260905064847 71 327 4.0 7.0 0.00 0.00 0.00 73 1015.7
20260905063946 72 331 4.0 7.0 0.00 0.00 0.00 72 1015.7
20260905063047 72 328 4.0 9.0 0.00 0.00 0.00 72 1015.7
20260905062146 72 323 5.0 10.0 0.00 0.00 0.00 71 1015.8
20260905061246 72 324 6.0 11.0 0.00 0.00 0.00 70 1015.8
20260905060346 72 322 6.0 12.0 0.00 0.00 0.00 69 1015.9
20260905055446 72 322 5.0 9.0 0.00 0.00 0.00 69 1015.9
20260905054547 73 323 5.0 10.0 0.00 0.00 0.00 69 1016.0
20260905053646 73 316 5.0 11.0 0.00 0.00 0.00 69 1016.1
20260905052747 72 327 4.0 7.0 0.00 0.00 0.00 70 1016.2
20260905051846 72 334 4.0 9.0 0.00 0.00 0.00 70 1016.3
20260905050947 72 325 4.0 7.0 0.00 0.00 0.00 71 1016.4
20260905050046 73 321 4.0 6.0 0.00 0.00 0.00 72 1016.4
20260905045146 72 332 3.0 7.0 0.00 0.00 0.00 73 1016.4
20260905044246 72 347 2.0 5.0 0.00 0.00 0.00 73 1016.5
20260905043346 72 346 2.0 4.0 0.00 0.00 0.00 74 1016.5
20260905042447 72 338 2.0 5.0 0.00 0.00 0.00 75 1016.6
20260905041546 72 331 3.0 5.0 0.00 0.00 0.00 75 1016.7
20260905035746 72 346 2.0 4.0 0.00 0.00 0.00 78 1016.7
20260905034846 72 326 3.0 6.0 0.00 0.00 0.00 80 1016.7
20260905033946 71 309 2.0 5.0 0.00 0.00 0.00 87 1016.6
20260905033046 70 305 1.0 2.0 0.00 0.00 0.00 91 1016.6
20260905032146 69 298 0.0 2.0 0.00 0.00 0.00 92 1016.6
20260905031247 68 0 0.0 0.0 0.00 0.00 0.00 93 1016.5
20260905030347 68 261 0.0 1.0 0.00 0.00 0.00 93 1016.4
20260905025447 67 0 0.0 0.0 0.00 0.00 0.00 93 1016.3
20260905024546 67 0 0.0 0.0 0.00 0.00 0.00 93 1016.4
20260905023646 67 0 0.0 0.0 0.00 0.00 0.00 93 1016.4
20260905022746 68 0 0.0 0.0 0.00 0.00 0.00 93 1016.4
20260905021847 68 0 0.0 0.0 0.00 0.00 0.00 92 1016.4
20260905020946 68 0 0.0 0.0 0.00 0.00 0.00 92 1016.5
20260905020046 68 0 0.0 0.0 0.00 0.00 0.00 91 1016.6
20260905015146 69 0 0.0 0.0 0.00 0.00 0.00 91 1016.5
20260905014246 69 0 0.0 0.0 0.00 0.00 0.00 91 1016.5
20260905013346 69 0 0.0 0.0 0.00 0.00 0.00 90 1016.5
20260905012447 70 262 0.0 1.0 0.00 0.00 0.00 90 1016.6
20260905011546 70 268 0.0 1.0 0.00 0.00 0.00 90 1016.5
20260905010647 70 311 0.0 2.0 0.00 0.00 0.00 90 1016.6
20260905005746 70 0 0.0 0.0 0.00 0.00 0.00 90 1016.7
20260905004847 70 0 0.0 0.0 0.00 0.00 0.00 89 1016.6
20260905003946 71 0 0.0 0.0 0.00 0.00 0.00 89 1016.6
20260905003046 71 0 0.0 0.0 0.00 0.00 0.00 88 1016.7
20260905001246 71 0 0.0 0.0 0.00 0.00 0.00 87 1016.4
20260905000347 71 0 0.0 0.0 0.00 0.00 0.00 86 1016.5
20260904235448 72 0 0.0 0.0 0.00 0.00 0.00 85 1016.5
20260904234546 73 0 0.0 0.0 0.00 0.00 0.00 83 1016.4
20260904233647 74 0 0.0 0.0 0.00 0.00 0.00 81 1016.2
20260904232746 75 0 0.0 0.0 0.00 0.00 0.00 79 1016.3
20260904231847 76 0 0.0 0.0 0.00 0.00 0.00 77 1016.1
20260904230946 77 0 0.0 0.0 0.00 0.00 0.00 73 1016.2